map of LFBC home
Great Circle Mapper logo
LFBC - Airport
Location
City:  Cazaux, France
ICAO:LFBC

Details
Type:Airport (Aerodrome, Airfield)
Use:Military
Latitude:4432'06"N (44.534883)
Longitude:107'53"W (-1.131449)
Elevation:84 ft (26 m)
Variation:0.53W (WMM2015 magnetic declination)
0.13 annual change
Runways:1
Longest:7900 × 148 ft (2408 × 45 m)

Time
Time Zone:UTC+1 (DST+2)
Local Time:

Weather
METAR:LFBC 291800Z AUTO 28019G29KT 240V300 7000 -RA BKN016 BKN022 OVC036 13/11 Q0993
TAF:LFBC 291100Z 2912/3012 27015G25KT 5000 BR SCT020 BKN040
BECMG 2912/2914 25025G35KT BKN014
TEMPO 2912/3006 2000 RADZ BKN010 BKN015TCU BKN020
BECMG 2916/2918 27030G50KT
BECMG 3000/3002 30020G40KT

Related Locations
Nearby:
Farthest:CHT: 12203 mi / 19638 km
Waitangi [Tuuta], Chatham Islands, NZ

Find:

   beyond  
but within

Other Information
Maps:
NOTAMs:
Links:
Sources:

  
flag of France   

Sectional Chart

Flight Planning
at skyvector.com

Satellite Image

Google Maps Satellite View

 

Copyright © 2004-2015 Karl L. Swartz. All rights reserved.
The Great Circle Mapper name and logo are trademarks of the Great Circle Mapper.
All other trademarks mentioned herein belong to their respective owners.
Please see credits for attibutions and further copyright information.

  Follow gcmap on Facebook Follow gcmap on Twitter

hCard Microformat

Geo Microformat